Regional Weather Roundup
Issued by NWS

Home | Current Version | Previous Version | Graphics & Text | Print | Product List | Glossary On
Versions: 1 2 3 4 5 6 7 8 9 10 11 12 13 14 15 16 17 18 19 20 21 22 23 24 25 26 27 28 29 30 31 32 33 34 35 36 37 38 39 40 41 42 43 44 45 46 47 48 49 50
000
ASUS43 KOAX 251710
RWRNE

WEATHER ROUNDUP FOR NEBRASKA
NATIONAL WEATHER SERVICE OMAHA NE
1100 AM CST SAT FEB 25 2017

NOTES: SATELLITE DATA IS BEING USED TO AUGMENT CLOUD COVER ABOVE
       12000 FEET.
       "FAIR" INDICATES FEW OR NO CLOUDS BELOW 12,000 FEET WITH NO
       SIGNIFICANT WEATHER AND/OR OBSTRUCTIONS TO VISIBILITY.

  * THESE STATIONS DO NOT REPORT WEATHER SUCH AS RAIN...SNOW OR FOG.

NEZ001>004-019>022-054>056-251800-
NEBRASKA PANHANDLE

CITY           SKY/WX    TMP DP  RH WIND       PRES   REMARKS
SCOTTSBLUFF    SUNNY     13   7  77 NW8       29.95F WCI   2
ALLIANCE       SUNNY     17  11  77 W14       29.90F WCI   3
CHADRON        SUNNY     21  13  71 W10       29.93F WCI  10
KIMBALL        SUNNY     24  14  65 W14       29.92S WCI  11
SIDNEY         SUNNY     25  13  60 NW18      29.94S WCI  11
$$

NEZ057>060-069>072-079>082-251800-
SOUTHWEST NEBRASKA

CITY           SKY/WX    TMP DP  RH WIND       PRES   REMARKS
NORTH PLATTE   SUNNY     24  15  68 W10       29.98F WCI  14
IMPERIAL       SUNNY     29  15  56 W15       29.98F WCI  18
LEXINGTON      SUNNY     29  19  68 S15       30.01F WCI  17
MCCOOK         SUNNY     33  25  72 SW18      30.01F WCI  22
OGALLALA       SUNNY     24  16  70 W7        29.97S WCI  16
$$

NEZ005>010-023>029-035>040-094-251800-
NORTH CENTRAL NEBRASKA

CITY           SKY/WX    TMP DP  RH WIND       PRES   REMARKS
VALENTINE      SUNNY     14   8  77 W13       29.92F WCI   0
AINSWORTH      SUNNY     18  13  80 SW13      29.93F WCI   4
BROKEN BOW     SUNNY     24  17  74 SW13      29.97F WCI  12
O`NEILL        PTSUNNY   22  15  73 S13       29.99F WCI  10
ORD            CLOUDY    22  12  65 S9        30.01F WCI  12
THEDFORD       SUNNY     20  13  74 W12       29.94F WCI   8
$$

NEZ041-046>049-061>064-073>077-083>087-251800-
SOUTH CENTRAL NEBRASKA

CITY           SKY/WX    TMP DP  RH WIND       PRES   REMARKS
GRAND ISLAND   MOSUNNY   26  16  65 SW10      30.08F WCI  16
AURORA         SUNNY     25  17  72 SW7       30.09F WCI  17
HASTINGS       SUNNY     26  17  68 SW8       30.09F WCI  18
HEBRON         SUNNY     26  16  65 SW7       30.15F WCI  19
HOLDREGE       SUNNY     27  17  63 SW12      30.04F WCI  17
KEARNEY *      SUNNY     25  16  68 SW13      30.06F WCI  13
YORK           MOSUNNY   23  18  80 W6        30.12S WCI  16
$$

NEZ011>018-030>034-042>045-251800-
NORTHEAST NEBRASKA

CITY           SKY/WX    TMP DP  RH WIND       PRES   REMARKS
NORFOLK        CLOUDY    21  12  68 SW8       30.06F WCI  11
ALBION         CLOUDY    23  12  63 S3        30.06F
BLAIR          CLOUDY    22  16  77 SW6       30.11S WCI  15
FREMONT        CLOUDY    25  18  74 W3        30.13S
TEKAMAH        CLOUDY    22  16  78 SW7       30.13R WCI  13
WAYNE          CLOUDY    22  15  73 SW9       30.07F WCI  12
$$

NEZ050>053-065>068-078-088>093-251800-
SOUTHEAST NEBRASKA

CITY           SKY/WX    TMP DP  RH WIND       PRES   REMARKS
LINCOLN        CLOUDY    23  15  71 SW5       30.15F WCI  17
OMAHA EPPLEY   PTSUNNY   27  15  61 W3        30.14S
BEATRICE       CLOUDY    26  18  73 SW6       30.16R WCI  19
FALLS CITY     CLOUDY    26  15  63 NW7       30.17S WCI  18
NEBRASKA CITY  PTSUNNY   24  14  64 W3        30.15F
PLATTSMOUTH    SUNNY     24  13  63 W3        30.14R
$$

NEZ044-045-051>053-067-251800-
OMAHA AREA

CITY           SKY/WX    TMP DP  RH WIND       PRES   REMARKS
OMAHA EPPLEY   PTSUNNY   27  15  61 W3        30.14S
BLAIR          CLOUDY    22  16  77 SW6       30.11S WCI  15
FREMONT        CLOUDY    25  18  74 W3        30.13S
MILLARD        MOSUNNY   26  17  68 W5        30.14S WCI  21
OFFUTT AFB     PTSUNNY   25  15  67 W7        30.14S WCI  17
PLATTSMOUTH    SUNNY     24  13  63 W3        30.14R
WAHOO          FAIR      23  15  69 W5        30.13S WCI  17
$$




USA.gov is the U.S. government's official web portal to all federal, state and local government web resources and services.